EW3511 Weather Reports


Display with metric or nautical units.
time (UTC)temp
F
wind
direction
speed
MPH
gust
MPH
rain 1hr
in
rain 24hr
in
rain mn
in
humidity
%
barometer
mb
20260831131551 79 326 3.0 8.0 0.00 0.05 0.05 55 1016.9
20260831130551 78 188 3.0 8.0 0.00 0.05 0.05 55 1016.9
20260831125611 79 16 2.0 7.0 0.00 0.05 0.05 55 1017.0
20260831124552 78 12 3.0 9.0 0.00 0.05 0.05 58 1017.0
20260831123612 78 173 3.0 8.0 0.00 0.05 0.05 58 1016.9
20260831122609 77 253 2.0 7.0 0.00 0.05 0.05 60 1017.0
20260831121553 78 171 2.0 8.0 0.00 0.05 0.05 60 1017.1
20260831120554 79 58 2.0 6.0 0.00 0.05 0.05 58 1017.1
20260831115555 79 210 3.0 9.0 0.00 0.05 0.05 59 1017.2
20260831114555 78 41 2.0 7.0 0.00 0.05 0.05 60 1017.3
20260831113554 78 264 2.0 7.0 0.00 0.05 0.05 61 1017.3
20260831112615 77 243 3.0 8.0 0.00 0.05 0.05 61 1017.4
20260831111555 77 228 2.0 7.0 0.00 0.05 0.05 61 1017.5
20260831110556 77 181 3.0 6.0 0.00 0.05 0.05 61 1017.4
20260831105556 77 255 2.0 5.0 0.00 0.05 0.05 61 1017.5
20260831104637 78 186 3.0 8.0 0.00 0.05 0.05 60 1017.4
20260831103557 77 57 1.0 5.0 0.00 0.05 0.05 61 1017.5
20260831102618 76 316 2.0 7.0 0.00 0.05 0.05 62 1017.5
20260831101558 75 341 2.0 5.0 0.00 0.05 0.05 64 1017.6
20260831100558 76 25 2.0 6.0 0.00 0.05 0.05 63 1017.7
20260831095619 75 110 2.0 6.0 0.00 0.05 0.05 64 1017.7
20260831094600 74 332 2.0 7.0 0.00 0.05 0.05 66 1017.8
20260831093559 73 309 2.0 7.0 0.00 0.05 0.05 68 1017.8
20260831092600 73 88 1.0 5.0 0.00 0.05 0.05 68 1017.9
20260831091600 73 101 1.0 3.0 0.00 0.05 0.05 68 1017.9
20260831090601 74 156 2.0 5.0 0.00 0.05 0.05 67 1017.9
20260831085602 73 97 0.0 3.0 0.00 0.05 0.05 69 1017.9
20260831084604 72 301 1.0 3.0 0.00 0.05 0.05 71 1017.9
20260831083622 72 182 2.0 6.0 0.00 0.05 0.05 70 1017.8
20260831082602 72 33 1.0 5.0 0.00 0.05 0.05 71 1017.8
20260831081603 72 47 1.0 5.0 0.00 0.05 0.05 72 1017.8
20260831080604 71 88 1.0 3.0 0.00 0.05 0.05 74 1017.7
20260831075604 70 165 1.0 3.0 0.00 0.05 0.05 80 1017.5
20260831074607 70 162 1.0 5.0 0.00 0.05 0.05 79 1017.4
20260831073604 70 105 1.0 3.0 0.00 0.05 0.05 80 1017.4
20260831072605 66 141 1.0 3.0 0.00 0.05 0.05 86 1017.3
20260831071533 66 80 0.0 2.0 0.00 0.05 0.05 88 1017.3
20260831070534 66 117 0.0 3.0 0.00 0.06 0.05 88 1017.3
20260831065534 66 108 1.0 3.0 0.00 0.06 0.05 87 1017.1
20260831064535 66 120 1.0 3.0 0.00 0.06 0.05 88 1017.1
20260831063535 65 93 1.0 2.0 0.00 0.06 0.05 89 1017.0
20260831062536 64 116 1.0 2.0 0.00 0.06 0.05 91 1016.9
20260831061556 63 98 0.0 2.0 0.00 0.06 0.05 92 1016.9
20260831060553 62 102 0.0 1.0 0.00 0.06 0.05 94 1016.9
20260831055537 62 136 0.0 2.0 0.00 0.06 0.05 94 1016.8
20260831053538 61 116 1.0 2.0 0.00 0.06 0.05 98 1016.6
20260831052538 61 0.0 1.0 0.00 0.06 0.05 99 1016.6
20260831051539 61 0.0 0.0 0.00 0.06 0.05 99 1016.5
20260831050600 61 111 0.0 1.0 0.00 0.06 0.05 98 1016.5
20260831045540 61 81 0.0 1.0 0.00 0.06 0.05 98 1016.6
20260831044540 61 0.0 0.0 0.00 0.06 0.05 97 1016.4
20260831043540 62 80 0.0 1.0 0.00 0.06 0.05 96 1016.4
20260831042541 62 59 0.0 2.0 0.02 0.06 0.05 94 1016.5
20260831041541 62 193 2.0 6.0 0.05 0.06 0.05 94 1016.4
20260831040542 62 196 3.0 8.0 0.05 0.06 0.05 96 1016.6
20260831035602 62 204 3.0 8.0 0.05 0.06 0.05 96 1016.3
20260831034542 62 169 2.0 6.0 0.05 0.06 0.05 95 1016.5
20260831033603 63 338 2.0 7.0 0.05 0.06 0.05 95 1016.7
20260831032603 64 21 3.0 9.0 0.03 0.04 0.03 94 1016.7
20260831031544 63 337 1.0 5.0 0.00 0.01 0.00 97 1014.9
20260831030544 63 148 1.0 2.0 0.00 0.01 0.00 96 1014.7
20260831025544 63 0.0 0.0 0.00 0.01 0.00 95 1014.3
20260831024545 64 0.0 1.0 0.00 0.01 0.00 94 1014.4
20260831023546 64 0.0 0.0 0.00 0.01 0.00 94 1014.3
20260831022546 64 0.0 0.0 0.00 0.01 0.00 94 1014.2
20260831021546 64 0.0 0.0 0.00 0.01 0.00 93 1014.2
20260831020547 64 0.0 0.0 0.00 0.01 0.00 93 1014.2
20260831015547 63 0.0 0.0 0.00 0.01 0.00 94 1014.3
20260831014547 64 68 0.0 1.0 0.00 0.01 0.00 95 1014.2
20260831013548 64 92 0.0 1.0 0.00 0.01 0.00 94 1014.4
20260831012609 64 0.0 0.0 0.00 0.01 0.00 94 1014.5
20260831011549 64 87 0.0 1.0 0.00 0.01 0.00 94 1014.7
20260831010549 64 99 1.0 2.0 0.00 0.01 0.00 93 1014.6
20260831005549 65 94 1.0 2.0 0.00 0.01 0.00 93 1014.6
20260831004550 65 94 1.0 2.0 0.00 0.01 0.00 93 1014.8
20260831003610 65 82 0.0 1.0 0.00 0.01 0.00 93 1014.8
20260831002551 65 90 1.0 2.0 0.00 0.01 0.00 92 1014.9
20260831001551 65 94 1.0 2.0 0.00 0.01 0.00 92 1015.1
20260831000604 66 91 1.0 2.0 0.00 0.01 0.00 92 1015.1
20260830235552 66 109 1.0 2.0 0.00 0.01 0.00 91 1015.2
20260830234552 66 113 1.0 5.0 0.00 0.01 0.00 90 1015.4
20260830233553 66 113 2.0 6.0 0.00 0.01 0.00 90 1015.5
20260830232553 67 122 3.0 7.0 0.00 0.01 0.00 90 1015.6
20260830231554 67 115 2.0 6.0 0.00 0.01 0.00 89 1015.5
20260830230554 67 91 1.0 2.0 0.00 0.01 0.00 89 1015.4
20260830225554 66 96 1.0 3.0 0.00 0.01 0.00 89 1015.8
20260830224555 66 0.0 0.0 0.00 0.01 0.00 90 1015.8
20260830223555 67 110 0.0 1.0 0.00 0.01 0.00 89 1016.0
20260830222556 67 128 1.0 5.0 0.00 0.01 0.00 87 1015.9
20260830221556 67 119 0.0 5.0 0.00 0.01 0.00 88 1015.9
20260830220617 67 119 0.0 1.0 0.00 0.01 0.00 89 1015.7
20260830215557 66 0.0 0.0 0.00 0.01 0.01 91 1015.8
20260830214557 66 0.0 0.0 0.00 0.01 0.01 91 1015.9
20260830213618 67 0.0 0.0 0.00 0.01 0.01 91 1015.7
20260830212558 67 0.0 0.0 0.00 0.01 0.01 89 1015.6
20260830211559 67 0.0 0.0 0.00 0.01 0.01 88 1015.6
20260830210559 66 0.0 0.0 0.00 0.01 0.01 89 1015.6
20260830205600 67 0.0 0.0 0.00 0.01 0.01 90 1015.6
20260830204620 66 0.0 0.0 0.00 0.01 0.01 89 1015.7
20260830203601 66 55 0.0 2.0 0.00 0.01 0.01 89 1015.7
20260830202621 67 38 1.0 3.0 0.00 0.01 0.01 90 1015.5
20260830201534 67 0.0 0.0 0.00 0.01 0.01 91 1015.5
20260830200534 67 0.0 0.0 0.00 0.01 0.01 92 1015.7
20260830195555 67 0.0 0.0 0.00 0.01 0.01 92 1015.8
20260830194534 67 0.0 0.0 0.00 0.01 0.01 91 1015.9
20260830193555 67 0.0 0.0 0.00 0.01 0.01 90 1015.8
20260830192535 68 0.0 0.0 0.00 0.01 0.01 89 1015.7
20260830191536 68 0.0 0.0 0.00 0.01 0.01 89 1015.8
20260830190536 68 116 0.0 1.0 0.00 0.01 0.01 86 1015.7
20260830185557 69 0.0 0.0 0.00 0.01 0.01 85 1015.6
20260830184538 70 65 0.0 1.0 0.00 0.01 0.01 82 1015.5
20260830183537 71 0.0 0.0 0.00 0.01 0.01 79 1015.4
20260830182538 72 0.0 0.0 0.00 0.01 0.01 76 1015.4
20260830181539 73 0.0 0.0 0.00 0.01 0.01 75 1015.4
20260830180538 73 60 0.0 1.0 0.00 0.01 0.01 74 1015.4
20260830175539 74 64 0.0 1.0 0.00 0.01 0.01 71 1015.4
20260830174539 75 0.0 0.0 0.00 0.01 0.01 69 1015.1
20260830173540 75 0.0 0.0 0.00 0.01 0.01 70 1015.0
20260830172620 75 68 0.0 1.0 0.00 0.01 0.01 69 1014.9
20260830171541 76 62 0.0 1.0 0.00 0.01 0.01 67 1014.9
20260830170541 76 67 0.0 1.0 0.00 0.01 0.01 66 1014.9
20260830165541 76 67 0.0 1.0 0.00 0.01 0.01 65 1014.7
20260830164624 77 62 1.0 2.0 0.00 0.01 0.01 64 1014.8
20260830163542 77 68 1.0 2.0 0.00 0.01 0.01 63 1014.8
20260830162602 78 65 1.0 2.0 0.00 0.01 0.01 63 1014.7
20260830161543 78 60 1.0 3.0 0.00 0.01 0.01 61 1014.7
20260830160543 79 61 1.0 3.0 0.00 0.01 0.01 59 1014.7
20260830155543 79 54 2.0 6.0 0.00 0.01 0.01 58 1014.7
20260830154604 80 49 1.0 3.0 0.00 0.01 0.01 58 1014.8
20260830153544 81 36 1.0 3.0 0.00 0.01 0.01 54 1014.8
20260830152546 82 55 0.0 2.0 0.00 0.01 0.01 53 1014.8
20260830151605 82 46 1.0 2.0 0.00 0.01 0.01 51 1014.8
20260830150547 82 64 0.0 2.0 0.00 0.01 0.01 51 1014.7
20260830145606 81 76 0.0 1.0 0.00 0.01 0.01 50 1014.8
20260830144548 80 55 1.0 2.0 0.00 0.01 0.01 53 1015.0
20260830143547 82 60 1.0 2.0 0.00 0.01 0.01 52 1014.8
20260830142548 83 57 1.0 2.0 0.00 0.01 0.01 50 1014.9
20260830141548 84 250 1.0 5.0 0.00 0.01 0.01 47 1015.0
20260830140549 85 105 1.0 3.0 0.00 0.01 0.01 46 1015.0
20260830135548 84 202 1.0 3.0 0.00 0.01 0.01 47 1015.1
20260830134550 83 130 1.0 3.0 0.00 0.01 0.01 48 1015.0
20260830133630 82 97 1.0 2.0 0.00 0.01 0.01 49 1015.2
20260830132610 82 43 2.0 3.0 0.00 0.01 0.01 51 1015.2